Tracking 25709 objects as of 23-May-2022
HD Live streaming from Space Station
objects crossing your sky now

TISAT 1

Track TISAT 1 now!
10-day predictions
TISAT 1 is classified as:


NORAD ID: 36799
Int'l Code: 2010-035E
Perigee: 588.1 km
Apogee: 604.8 km
Inclination: 98.2 °
Period: 96.5 minutes
Semi major axis: 6967 km
RCS: 0.056 m2 (small)
Launch date: July 12, 2010
Source: (SWTZ)
Launch site: SRIHARIKOTA (SRI)

Uplink (MHz): 145.980
Downlink (MHz): 437.305
Beacon (MHz): 145.980
Mode: FM AFSK PSK CW
Call sign: HB9DE
Status: Inactive

aabbcc
Your satellite tracking list
Your tracking list is empty




NASA's NSSDC Master Catalog

Two Line Element Set (TLE):
1 36799U 10035E   22142.84787414  .00004878  00000-0  47726-3 0  9993
2 36799  98.1853 352.2832 0011968 173.5664 186.5710 14.92768201643946
Source of the keplerian elements: Caltech